[[{"header":{"parameterUnit":"m.s-1","parameterCategory":1,"la1":30.2992,"la2":30.254,"lo1":-89.0895,"lo2":-89.0443,"dy":0.0025,"dx":0.0025,"nx":19,"ny":19,"refTime":"2026-04-29T03:00:00:Z","depth":0,"parameterNumber":2,"parameterNumberName":"U-component_of_WINDS"},"data":[0,0,0,-0.1869,-0.1866,-0.1697,-0.1696,-0.1493,-0.1492,0,0,0,0,0,0,0,0,0,0,0,-0.1931,-0.193,-0.1869,-0.1865,-0.1697,-0.1696,-0.1493,-0.1492,0,0,0,0,0,0,0,0,0,0,0,-0.1931,-0.193,-0.1929,-0.1865,-0.1697,-0.1696,-0.1494,-0.1616,0,0,0,0,0,0,0,0,0,0,-0.1777,-0.1847,-0.193,-0.1929,-0.1864,-0.1697,-0.1696,-0.1621,-0.1608,-0.1577,0,-0.1555,0,-0.152,-0.1479,-0.1479,0,0,0,-0.1856,-0.1858,-0.1802,-0.1929,-0.1863,-0.1697,-0.177,-0.1614,-0.1599,-0.1559,-0.1552,-0.1544,-0.1517,-0.1478,-0.1477,-0.1336,-0.1336,0,0,-0.1865,-0.1906,-0.1812,-0.1793,-0.1824,-0.1776,-0.1765,-0.1604,-0.1598,-0.1551,-0.1539,-0.1514,-0.1477,-0.1475,-0.1336,-0.1336,0,0,0,-0.1898,-0.1913,-0.1861,-0.1802,-0.1771,-0.1771,-0.1759,-0.1605,-0.1585,-0.1537,-0.1511,-0.1476,-0.1473,-0.1336,-0.1336,-0.1367,0,0,0,-0.1904,-0.1932,-0.1865,-0.1888,-0.1774,-0.1686,-0.1763,-0.1596,-0.1576,-0.1512,-0.1476,-0.1472,-0.1337,-0.1336,-0.1366,-0.1374,0,0,0,-0.1938,-0.1936,-0.1916,-0.1891,-0.182,-0.1688,-0.1658,-0.1591,-0.1561,-0.1478,-0.1471,-0.1337,-0.1336,-0.1366,-0.1373,-0.1348,0,0,0,-0.1985,-0.1945,-0.1917,-0.1862,-0.1822,-0.171,-0.1659,-0.1572,-0.1505,-0.1475,-0.1337,-0.1336,-0.1366,-0.1373,-0.1348,-0.1335,-0.1334,0,0,-0.1957,-0.1943,-0.1907,-0.1877,-0.1781,-0.1732,-0.1638,-0.1536,-0.1489,-0.1389,-0.1385,-0.1367,-0.1373,-0.1348,-0.1313,-0.1312,0,0,0,-0.1911,-0.1886,-0.1851,-0.1791,-0.1714,-0.1647,-0.1556,-0.1518,-0.1431,-0.1447,-0.135,-0.1352,-0.1336,-0.1328,-0.1327,-0.131,-0.1334,-0.1334,-0.1334,-0.1929,-0.1873,-0.1809,-0.1733,-0.1675,-0.1581,-0.1527,-0.1459,-0.1418,-0.1396,-0.1366,-0.1352,-0.1343,-0.1343,-0.1325,-0.1355,-0.1355,-0.1355,-0.1355,-0.1882,-0.1836,-0.1785,-0.1704,-0.1644,-0.1574,-0.1482,-0.1455,-0.138,-0.137,-0.1353,-0.1346,-0.1344,-0.1325,-0.1357,-0.1356,-0.1356,-0.1356,-0.1356,-0.1887,-0.1855,-0.1811,-0.1717,-0.165,-0.1573,-0.1503,-0.145,-0.14,-0.1383,-0.1344,-0.1344,-0.1335,-0.1369,-0.1369,-0.1368,-0.1368,-0.1368,-0.1368,-0.1909,-0.1859,-0.1808,-0.1723,-0.1677,-0.1608,-0.1513,-0.1464,-0.1397,-0.1363,-0.1363,-0.1324,-0.1355,-0.1363,-0.1367,-0.1367,-0.1368,-0.1368,-0.1368,-0.1881,-0.1879,-0.1801,-0.1755,-0.1649,-0.1585,-0.1519,-0.1425,-0.1377,-0.1344,-0.1308,-0.134,-0.1321,-0.1321,-0.1327,-0.1322,-0.1322,-0.1322,-0.1322,-0.1885,-0.1871,-0.1779,-0.1708,-0.1632,-0.1564,-0.1474,-0.1399,-0.132,-0.1287,-0.128,-0.1284,-0.1287,-0.1266,-0.1267,-0.1272,-0.1252,-0.1252,-0.1252,-0.1864,-0.184,-0.1776,-0.1701,-0.1614,-0.154,-0.1453,-0.1371,-0.1281,-0.1248,-0.1259,-0.1261,-0.1268,-0.1273,-0.124,-0.1243,-0.1252,0,0]},{"header":{"parameterUnit":"m.s-1","parameterCategory":1,"la1":30.2992,"la2":30.254,"lo1":-89.0895,"lo2":-89.0443,"dy":0.0025,"dx":0.0025,"nx":19,"ny":19,"refTime":"2026-04-29T03:00:00:Z","depth":0,"parameterNumber":3,"parameterNumberName":"V-component_of_WINDS"},"data":[0,0,0,6.4265,6.4268,6.4382,6.4382,6.4528,6.4529,0,0,0,0,0,0,0,0,0,0,0,6.4235,6.4236,6.4265,6.4268,6.4382,6.4382,6.4527,6.4529,0,0,0,0,0,0,0,0,0,0,0,6.4234,6.4236,6.4237,6.4268,6.4382,6.4382,6.4527,6.444,0,0,0,0,0,0,0,0,0,0,6.4329,6.4306,6.4236,6.4237,6.4269,6.4382,6.4382,6.4436,6.4446,6.4477,0,6.451,0,6.4523,6.4539,6.454,0,0,0,6.4263,6.4298,6.4326,6.4238,6.427,6.4381,6.4329,6.4441,6.4452,6.449,6.4512,6.4518,6.4525,6.454,6.4541,6.4751,6.4752,0,0,6.4257,6.4256,6.4319,6.4333,6.4321,6.4326,6.4333,6.4448,6.447,6.4513,6.4521,6.4527,6.4541,6.4542,6.475,6.4751,0,0,0,6.4242,6.4252,6.4277,6.4328,6.4349,6.4329,6.4337,6.4465,6.4473,6.4522,6.4529,6.4542,6.4544,6.4749,6.475,6.4812,0,0,0,6.4238,6.4243,6.4275,6.4275,6.4347,6.4409,6.4352,6.4465,6.4479,6.4528,6.4542,6.4545,6.4747,6.4749,6.4807,6.484,0,0,0,6.4226,6.4242,6.426,6.4275,6.4325,6.4407,6.4422,6.4468,6.4483,6.454,6.4546,6.4746,6.4749,6.4803,6.4833,6.4897,0,0,0,6.4211,6.4308,6.4261,6.4372,6.4324,6.4446,6.4422,6.4511,6.4567,6.4543,6.4747,6.475,6.4802,6.4829,6.4893,6.4952,6.4977,0,0,6.4333,6.4323,6.4388,6.4349,6.4481,6.4428,6.4567,6.4615,6.4618,6.4705,6.4711,6.4809,6.4833,6.4896,6.5112,6.5132,0,0,0,6.4426,6.4474,6.4508,6.4565,6.4609,6.4649,6.4678,6.4697,6.4772,6.4665,6.4848,6.4862,6.49,6.4928,6.4945,6.4977,6.4763,6.4763,6.4762,6.4595,6.46,6.4709,6.4728,6.4783,6.4815,6.4859,6.4889,6.4871,6.4915,6.4941,6.5072,6.5105,6.5118,6.5152,6.4972,6.4972,6.4972,6.4972,6.4774,6.4842,6.4825,6.4925,6.4928,6.5009,6.5043,6.503,6.5105,6.5052,6.5085,6.5028,6.5139,6.5169,6.4977,6.4976,6.4976,6.4975,6.4975,6.4886,6.492,6.4945,6.5031,6.5095,6.5109,6.5185,6.5182,6.518,6.5213,6.5241,6.524,6.524,6.5227,6.5227,6.5228,6.5228,6.5229,6.5229,6.4992,6.5019,6.5086,6.5145,6.5183,6.5232,6.5267,6.5303,6.5342,6.5334,6.5335,6.5315,6.515,6.511,6.5236,6.5235,6.5234,6.5233,6.5233,6.5173,6.5134,6.5236,6.5276,6.5346,6.5411,6.541,6.5484,6.5513,6.555,6.5524,6.5403,6.539,6.5377,6.5344,6.5523,6.5523,6.5523,6.5523,6.5269,6.5264,6.5372,6.5435,6.5496,6.5507,6.5621,6.5649,6.5671,6.5689,6.5663,6.5618,6.5604,6.56,6.5582,6.5551,6.5778,6.5779,6.5779,6.5381,6.5384,6.5483,6.5511,6.5566,6.5613,6.5721,6.5791,6.5806,6.5789,6.5704,6.5693,6.562,6.5596,6.5576,6.5548,6.5491,0,0]}]]